Flag for U.S.A. Weather past 2 weeks in Sterling Heights, Michigan, U.S.A.

Now
75 °F

Broken clouds.


Feels Like: 75 °F
Forecast: 65 / 84 °F
Wind: No wind

Location: Selfridge Air National Guard Base

Current Time: Aug 30, 2015 at 9:13:39 PM

Latest Report: Aug 30, 2015 at 7:55 PM


Visibility: 10 mi

Pressure: 30.01 "Hg

Humidity: 79%

Dew point: 68 °F

Location of Sterling HeightsLocation

Historic Weather in Sterling Heights — Graph

°F

Sterling Heights temperature yesterday

Maximum temperature yesterday: 72 °F (at 2:55 PM)
Minimum temperature yesterday: 62 °F (at 6:58 AM)
Average temperature yesterday: 68 °F

Past Weeks' High & Low Weather Summary

 TemperatureHumidityPressure
High89 °F (Aug 17, 12:55 PM)100% (Aug 28, 6:03 AM)30.23 "Hg (Aug 28, 6:03 AM)
Low50 °F (Aug 28, 6:03 AM)41% (Aug 16, 8:55 AM)29.66 "Hg (Aug 20, 2:58 AM)
Average69 °F76%30.01 "Hg
* Reported Aug 15 7:55 PM — Aug 30 7:55 PM, Sterling Heights, Weather by CustomWeather, © 2015

Note: Actual official high and low records may vary slightly from our data, if they occured in-between our weather recording intervals... More about our weather records

Advertising

Sterling Heights weather history for previous 24 hours

 ConditionsComfort  
Time TempWeatherWind HumidityBarometerVisibility
7:55 PM
Sun, Aug 30
75 °FBroken clouds.No wind79%30.01 "Hg10 mi
6:55 PM78 °FBroken clouds.No wind77%30.01 "Hg10 mi
5:55 PM78 °FBroken clouds.8 mph75%30.00 "Hg10 mi
4:55 PM79 °FScattered clouds.10 mph71%30.01 "Hg10 mi
3:55 PM81 °FScattered clouds.9 mph69%30.03 "Hg10 mi
2:55 PM80 °FScattered clouds.9 mph69%30.04 "Hg10 mi
1:55 PM79 °FScattered clouds.10 mph70%30.05 "Hg7 mi
12:55 PM74 °FBroken clouds.6 mph85%30.08 "Hg7 mi
11:55 AM76 °FBroken clouds.No wind82%30.08 "Hg7 mi
10:55 AM74 °FBroken clouds.3 mph83%30.09 "Hg6 mi
9:55 AM70 °FFog.No wind97%30.09 "Hg6 mi
8:55 AM68 °FFog.No wind98%30.08 "Hg6 mi
7:55 AM67 °FFog.No wind99%30.08 "Hg2 mi
6:58 AM65 °FFog.2 mph98%30.04 "Hg4 mi
6:03 AM66 °FFog.1 mph94%30.03 "Hg2 mi
4:58 AM67 °FOvercast.2 mph95%30.02 "Hg10 mi
3:58 AM67 °FMostly cloudy.2 mph94%30.03 "Hg10 mi
2:58 AM67 °FPassing clouds.3 mph96%30.03 "Hg10 mi
1:58 AM67 °FPassing clouds.3 mph97%30.05 "Hg8 mi
1:03 AM66 °FPassing clouds.3 mph100%30.05 "Hg8 mi
12:58 AM66 °FFog.5 mph97%30.05 "Hg6 mi
11:58 PM
Sat, Aug 29
66 °FPassing clouds.2 mph100%30.07 "Hg7 mi
11:03 PM68 °FPassing clouds.5 mph94%30.07 "Hg9 mi
10:58 PM68 °FPassing clouds.3 mph95%30.07 "Hg10 mi
9:58 PM68 °FPassing clouds.5 mph93%30.07 "Hg10 mi
9:03 PM70 °FBroken clouds.No wind88%30.05 "Hg10 mi
Weather by CustomWeather, © 2015

See weather overviewHow to use our weather pages